Wind_Speed
8 10 13 15 15 5 13 9 8 5 4 11 13 8 12 16 15 16 16 16 17 18 22 24 24 24 21 20 20 20 18 17 14 11 8 7 7 7 7 9 7 6 9 13
6 18 18 10 9 6 10 8 8 2 6 9 5 11 10 18 18 18 18 17 17 17 16 22 25 25 24 24 23 22 23 21 20 14 12 9 7 6 9 9 7 6 8 12
21 16 12 12 11 11 9 10 7 5 7 4 2 7 10 14 14 16 17 17 17 18 17 17 23 25 25 25 25 25 29 26 24 21 15 13 10 9 8 6 6 6 9 11
14 8 17 14 16 13 13 12 6 8 7 4 4 4 7 15 18 19 19 19 19 19 18 17 22 24 26 27 25 25 29 32 28 23 17 15 11 10 7 7 8 9 10 13
16 16 18 19 20 17 9 8 10 7 6 2 5 6 4 6 15 22 22 22 21 20 20 20 23 25 26 24 24 24 28 31 34 27 23 17 16 13 11 10 12 12 12 11
16 2 12 20 13 17 11 9 6 5 2 6 10 9 9 7 14 18 21 22 21 20 20 19 24 24 24 24 23 23 24 30 32 30 26 23 19 17 14 13 12 10 9 9
16 7 5 8 16 14 13 11 3 4 5 6 2 6 15 9 8 12 24 24 22 20 19 18 18 23 24 25 25 23 23 26 26 26 25 24 25 22 19 17 14 12 11 10
15 15 13 13 17 13 22 17 9 8 6 5 3 6 4 3 5 15 15 21 21 21 19 19 20 25 25 26 26 25 23 24 25 25 26 25 26 20 19 17 15 12 11 10
13 16 16 11 12 17 13 12 13 4 1 4 3 5 13 1 0 12 15 19 21 21 20 20 21 25 25 25 27 27 25 24 25 24 24 26 27 25 20 20 18 14 14 9
9 10 13 19 9 14 14 18 10 5 7 7 5 6 9 10 2 11 16 19 19 19 19 17 18 24 24 25 25 25 26 26 24 23 23 25 26 26 24 21 19 16 12 9
11 6 11 16 17 17 9 14 6 12 4 8 5 7 5 10 4 15 17 18 19 18 18 17 17 23 23 23 23 24 25 25 23 23 24 26 25 23 21 20 18 15 9 7
13 7 8 17 22 15 21 17 19 12 7 2 3 6 2 6 3 15 16 16 16 18 18 17 18 22 22 23 23 24 24 25 26 26 26 26 21 19 19 19 16 11 9 10
6 11 9 8 6 11 19 17 21 14 8 11 12 6 1 3 2 13 17 15 13 15 16 15 14 18 23 24 24 25 25 27 24 23 23 21 19 20 18 15 12 11 14 14
6 6 19 14 20 18 23 20 17 21 12 12 15 16 14 8 3 10 14 14 14 15 16 16 15 13 21 23 24 25 26 27 24 23 23 22 22 21 17 14 14 15 17 17
4 10 11 21 2 17 18 25 21 22 21 19 18 14 16 12 6 11 15 14 15 15 16 17 17 15 22 23 25 26 28 26 26 25 24 25 21 18 16 16 17 18 19 19
10 2 3 19 21 10 18 18 27 24 22 17 16 18 16 11 7 6 9 14 17 18 20 20 18 17 21 26 28 28 27 27 27 26 26 23 21 20 20 20 22 22 21 22
6 6 3 16 18 20 23 23 16 22 26 25 22 23 10 9 10 13 14 15 18 20 20 19 21 19 25 29 30 30 28 23 27 27 26 24 24 23 23 23 24 25 25 26
8 8 4 3 11 22 17 19 21 14 17 22 22 15 19 15 14 14 12 16 16 18 18 18 18 22 31 29 28 27 28 33 32 29 28 26 25 24 24 25 25 25 27 30
17 6 4 4 14 7 12 7 22 18 21 17 20 17 12 11 5 11 14 16 18 16 16 19 32 36 34 31 31 30 28 29 29 29 29 28 28 27 27 27 26 25 29 31
15 15 8 3 8 14 13 13 9 17 20 18 19 18 14 7 9 10 12 14 16 15 14 17 26 26 24 26 26 27 25 27 29 28 27 26 27 26 27 26 26 25 31 30
7 8 15 13 5 7 9 15 12 17 7 16 20 18 17 13 10 12 7 9 11 11 14 16 21 27 30 26 29 27 25 28 25 23 23 24 24 25 26 26 24 25 28 29
9 11 7 8 8 11 6 2 13 6 8 9 17 19 15 17 14 14 12 10 8 10 10 19 20 22 23 28 29 24 26 23 25 25 24 24 25 26 27 28 26 25 27 30
4 2 2 8 6 5 11 12 14 15 11 13 13 16 18 18 15 14 13 12 11 10 10 17 19 18 19 26 29 25 23 27 27 26 24 25 26 26 29 32 29 27 28 31
1 4 2 4 4 14 23 12 7 14 14 16 16 15 18 14 15 13 8 10 10 10 11 18 21 19 19 22 23 22 27 27 27 26 27 27 27 27 26 26 27 28 29 26
4 6 5 5 8 21 3 15 18 20 19 19 15 13 16 14 10 10 8 10 10 10 13 17 17 17 19 21 22 25 27 29 28 27 27 27 25 28 28 22 23 28 30 30
4 7 5 3 11 11 16 18 23 20 22 20 16 14 14 14 12 11 10 8 10 11 15 16 17 18 20 23 23 25 28 31 31 29 28 28 29 28 26 28 28 24 24 24
Wind_Direction
191 197 201 197 206 235 195 204 222 229 199 198 227 247 194 183 191 194 193 191 195 201 201 201 202 204 205 207 209 211 215 214 211 217 226 237 247 257 267 291 295 327 348 356
170 216 205 198 183 159 192 214 218 194 169 213 221 240 204 193 199 197 196 197 198 201 194 199 203 204 204 206 211 214 218 219 221 221 226 234 251 264 262 274 285 312 340 348
201 203 185 187 178 184 201 216 200 240 147 201 203 239 195 206 204 206 210 204 202 203 197 195 196 199 200 205 210 215 221 224 226 227 230 238 251 258 265 272 287 297 325 344
209 185 188 193 206 195 212 216 189 165 183 285 208 282 220 202 203 208 209 207 205 204 204 199 197 200 200 207 211 215 223 227 227 228 227 230 233 243 250 273 288 299 323 336
193 184 189 199 202 190 221 167 191 201 213 211 198 268 254 181 208 211 209 207 205 201 203 204 201 203 205 205 209 214 222 226 226 229 230 232 234 245 257 268 283 298 316 337
207 224 197 209 200 193 141 110 93 106 217 248 243 233 273 197 222 213 204 206 203 199 200 203 204 204 206 205 208 209 214 223 225 229 231 234 233 240 249 261 271 290 308 315
203 203 209 187 189 186 187 166 179 194 211 241 99 213 254 235 226 212 195 196 197 195 195 196 199 201 204 204 207 208 211 219 220 222 226 231 238 243 248 259 266 276 294 308
187 208 193 188 205 184 195 186 210 213 216 225 124 234 248 172 277 214 198 186 185 189 190 193 198 201 203 204 207 208 212 219 219 220 224 230 238 242 247 255 257 269 280 294
199 209 186 190 192 179 180 209 200 174 79 238 204 262 278 258 220 182 174 173 183 185 186 193 197 201 201 204 207 210 213 220 221 221 224 232 239 241 241 251 261 266 273 281
189 201 203 198 193 209 194 175 184 215 211 231 219 270 254 274 210 184 166 177 183 183 181 191 197 200 202 205 207 211 215 221 221 220 223 229 234 240 247 252 258 260 260 267
171 225 178 201 205 180 175 190 217 190 231 219 243 244 227 273 191 197 179 181 177 180 182 189 196 200 201 204 206 210 213 217 219 220 223 228 232 236 240 246 253 254 241 216
199 198 209 199 201 210 197 195 193 195 181 234 276 263 358 292 242 193 183 183 184 182 183 189 193 194 196 201 204 209 212 213 217 221 225 230 229 230 234 240 243 237 208 198
207 212 190 182 192 199 209 200 200 201 176 195 212 234 356 22 184 194 179 186 183 183 181 188 192 194 196 200 203 207 210 216 216 215 218 218 218 224 227 227 222 198 192 197
199 227 221 209 210 189 205 196 205 198 200 192 217 234 249 299 279 199 184 188 184 186 185 194 198 197 197 200 201 206 213 216 213 211 212 213 216 220 217 211 197 187 195 195
24 223 214 230 237 203 203 208 202 210 213 211 213 228 245 251 244 224 197 179 181 190 199 199 199 199 201 202 204 208 214 210 207 208 209 214 214 212 204 194 187 187 192 189
346 207 262 232 227 224 220 214 213 211 215 223 227 229 233 231 216 222 220 191 195 196 200 204 205 200 199 202 204 206 209 205 199 204 210 210 205 200 195 187 187 186 186 184
313 334 342 225 213 235 244 228 222 222 216 216 218 226 195 207 204 219 229 205 206 209 208 201 201 200 204 204 202 203 201 193 198 204 207 203 200 196 191 184 181 182 181 178
267 319 302 239 185 220 247 230 226 227 227 223 232 228 222 227 222 223 218 221 218 216 215 209 208 204 209 208 204 199 195 197 199 201 202 200 195 193 187 181 177 177 177 178
218 235 265 234 212 235 222 208 210 206 231 222 231 223 216 220 216 244 221 216 222 224 219 212 203 202 206 203 201 193 190 194 196 201 199 196 194 188 184 178 173 173 172 174
207 215 221 193 226 231 221 212 200 200 237 219 221 237 238 193 221 240 198 211 226 228 212 206 203 199 198 203 191 186 193 193 199 198 196 192 188 185 182 175 170 169 175 171
165 197 217 228 261 277 252 218 173 195 255 209 210 219 225 208 220 240 201 217 223 222 210 198 190 192 197 187 184 191 190 200 197 190 187 184 184 179 175 168 164 161 165 167
172 169 186 207 212 238 247 161 215 245 250 225 209 206 209 215 225 243 247 243 219 219 208 194 187 195 182 181 181 186 194 190 179 177 175 176 175 171 167 163 160 160 164 163
205 280 221 212 208 302 314 305 306 331 287 235 217 215 210 211 229 237 235 229 229 221 213 198 187 180 179 179 184 180 180 169 167 168 169 169 166 164 166 162 160 158 160 161
79 26 256 295 79 326 302 295 325 336 313 300 289 247 192 206 207 214 237 227 219 204 198 193 177 179 175 182 182 176 162 164 164 161 158 159 161 160 164 165 165 163 162 159
344 337 330 274 337 330 111 343 332 322 315 304 292 259 242 216 213 216 232 225 210 193 194 192 182 173 172 171 172 164 162 161 162 157 158 160 162 160 156 158 165 165 172 172
48 34 32 355 334 312 283 303 314 322 312 298 290 268 244 242 228 212 230 215 201 189 184 183 179 169 165 165 163 161 162 162 159 155 159 162 162 162 160 153 148 156 174 180
Height
753 763 770 761 757 760 763 774 781 775 768 779 780 781 786 790 793 795 797 800 803 806 809 815 819 823 827 831 833 835 838 840 843 844 846 847 848 849 850 850 850 850 850 849
761 761 747 749 759 763 767 775 778 773 770 776 779 778 778 783 783 785 788 792 795 799 803 809 814 818 822 826 829 832 834 837 840 842 844 845 846 847 848 848 849 849 849 848
751 744 744 753 761 768 767 770 773 773 774 774 779 779 782 777 778 781 781 783 787 791 796 803 808 812 817 821 824 827 830 833 836 839 842 844 845 846 847 847 848 848 848 848
747 740 746 752 757 755 772 755 763 772 777 788 774 786 774 766 774 777 777 777 779 784 790 795 801 806 810 814 819 822 825 828 832 836 839 841 844 845 846 846 847 847 847 847
746 745 749 752 745 747 759 749 760 765 774 779 782 787 752 762 770 766 766 767 770 775 781 787 793 799 804 809 813 816 820 823 827 831 835 838 840 843 844 844 844 845 845 845
733 733 733 731 734 739 746 759 769 773 776 794 773 777 749 758 746 745 751 758 761 767 774 781 788 794 798 803 807 811 814 817 822 826 830 833 836 839 841 842 843 844 844 843
741 741 732 729 743 740 742 756 793 800 800 793 780 784 749 731 730 726 734 745 751 759 767 773 780 787 792 796 801 806 809 811 816 821 825 828 831 835 837 839 840 841 842 842
752 764 736 722 729 741 745 746 778 809 797 780 786 778 742 719 716 718 721 731 742 752 758 765 772 779 785 789 794 800 803 806 811 816 820 824 827 831 833 835 837 838 840 840
744 742 718 720 717 725 747 760 737 772 786 780 763 750 726 717 720 718 722 729 738 744 749 757 765 773 778 783 787 793 798 801 806 811 816 819 822 825 828 831 833 834 835 837
727 745 721 719 718 718 726 727 767 766 794 797 767 766 747 723 725 723 724 729 734 737 744 752 759 766 772 777 782 788 792 796 801 806 810 814 817 820 824 826 828 830 832 833
718 726 727 717 726 726 735 742 742 738 757 772 779 753 716 714 715 722 717 722 727 732 737 746 754 761 767 772 777 782 787 791 795 800 804 808 811 815 819 822 824 826 828 830
708 714 731 723 704 702 707 719 727 748 777 765 757 747 707 707 708 712 714 719 721 725 731 740 748 756 762 767 772 776 782 785 789 794 798 802 807 812 815 817 820 823 825 827
713 714 731 735 722 715 716 713 711 716 732 762 761 744 707 705 711 710 711 715 722 726 731 738 746 750 755 761 766 770 775 778 784 788 792 798 802 806 809 813 816 819 822 823
730 719 712 718 708 702 723 713 715 715 736 737 736 723 710 705 713 713 711 715 720 726 730 735 741 744 748 753 758 763 767 771 777 782 787 792 796 800 804 808 812 815 817 820
738 727 719 703 704 699 703 707 712 717 710 728 720 730 711 706 705 707 703 709 719 724 727 729 733 737 741 747 752 756 759 764 770 775 780 784 790 795 799 803 807 809 813 816
743 730 728 715 701 704 707 700 698 708 707 716 710 716 692 693 699 705 705 709 712 713 715 719 724 729 732 737 741 747 752 756 763 768 772 778 783 788 792 797 801 804 808 813
754 745 735 722 706 708 715 699 701 697 693 697 714 696 690 700 702 699 698 701 702 702 703 709 711 716 721 724 730 736 743 752 757 761 766 771 776 781 785 790 795 799 804 810
756 755 744 724 714 735 682 672 684 699 694 687 686 683 681 684 683 682 687 691 690 690 693 697 700 707 709 715 723 729 736 740 746 752 758 764 770 776 781 786 791 796 801 807
752 754 746 731 715 692 686 682 683 695 697 685 688 681 680 680 685 685 680 681 679 679 681 682 685 688 698 707 712 721 728 733 740 744 750 756 762 768 774 780 787 793 799 805
743 744 742 734 724 715 685 669 668 673 697 670 677 680 679 684 696 678 670 671 671 671 673 677 680 688 695 700 707 715 721 726 730 736 743 751 757 763 770 777 783 790 797 803
744 748 742 735 729 705 677 661 664 704 683 656 664 667 669 682 668 656 660 659 659 662 667 672 678 680 682 692 700 707 714 718 725 733 740 748 753 759 767 774 782 789 795 802
721 726 731 731 732 725 664 671 682 663 649 652 652 655 658 660 657 657 655 656 656 659 663 666 671 674 679 685 693 701 705 712 720 728 735 742 748 755 762 770 778 787 793 800
710 705 702 702 696 675 676 679 670 663 655 647 647 644 644 648 651 648 649 649 649 653 658 661 664 671 676 680 686 692 699 707 715 723 731 738 745 752 759 765 774 783 790 798
707 706 705 705 692 691 677 671 670 667 663 653 645 637 635 639 637 638 638 643 644 647 652 657 659 665 670 676 682 689 695 702 712 719 727 736 743 749 758 765 771 778 786 794
712 709 713 703 695 687 669 676 671 665 658 649 642 639 637 630 629 631 633 635 635 640 649 654 653 658 665 672 679 685 692 699 710 717 725 732 742 748 755 763 769 774 781 788
714 719 716 711 710 710 695 680 674 666 658 649 642 634 628 631 624 625 627 628 632 637 643 648 651 655 663 670 679 684 690 697 705 712 721 729 738 746 753 758 767 776 782 788